EW8319 Weather Reports


Display with metric or nautical units.
time (UTC)temp
F
wind
direction
speed
MPH
gust
MPH
rain 1hr
in
rain 24hr
in
rain mn
in
humidity
%
barometer
mb
20200225224042 58 267 1.0 2.0 0.00 0.02 0.02 37 1031.8
20200225223042 57 172 0.0 2.0 0.00 0.02 0.02 37 1031.8
20200225222039 56 12 0.0 5.0 0.00 0.02 0.02 39 1031.8
20200225221038 57 40 3.0 5.0 0.00 0.02 0.02 39 1031.8
20200225220036 56 309 3.0 5.0 0.00 0.02 0.02 42 1032.2
20200225215032 55 202 0.0 5.0 0.00 0.02 0.02 41 1032.6
20200225214032 57 180 0.0 5.0 0.00 0.02 0.02 38 1032.6
20200225213034 56 140 1.0 5.0 0.00 0.02 0.02 44 1032.2
20200225212028 55 205 0.0 5.0 0.00 0.02 0.02 41 1032.9
20200225211026 55 187 0.0 5.0 0.00 0.02 0.02 43 1032.9
20200225210031 54 74 1.0 8.0 0.00 0.02 0.02 44 1032.9
20200225205022 54 243 0.0 5.0 0.00 0.02 0.02 46 1033.3
20200225204021 52 181 0.0 8.0 0.00 0.02 0.02 48 1032.9
20200225203020 52 57 0.0 5.0 0.00 0.02 0.02 49 1033.3
20200225202018 52 273 0.0 8.0 0.00 0.02 0.02 51 1033.6
20200225201015 51 209 0.0 8.0 0.00 0.02 0.02 51 1034.0
20200225200015 51 232 0.0 2.0 0.00 0.02 0.02 52 1034.0
20200225195015 50 149 0.0 5.0 0.00 0.02 0.02 53 1034.3
20200225194010 50 259 2.0 5.0 0.00 0.02 0.02 54 1034.3
20200225193015 49 311 3.0 5.0 0.00 0.02 0.02 54 1034.3
20200225192006 48 192 0.0 5.0 0.00 0.02 0.02 56 1034.0
20200225191006 47 276 2.0 5.0 0.00 0.02 0.02 59 1034.0
20200225190004 47 339 3.0 5.0 0.00 0.02 0.02 60 1034.3
20200225185000 47 309 2.0 5.0 0.00 0.02 0.02 57 1034.0
20200225183958 46 185 0.0 2.0 0.00 0.02 0.02 57 1034.0
20200225182958 46 185 0.0 2.0 0.00 0.02 0.02 60 1034.0
20200225181955 45 183 0.0 0.0 0.00 0.02 0.02 65 1034.3
20200225180953 44 202 0.0 0.0 0.00 0.02 0.02 69 1034.3
20200225175953 42 181 0.0 0.0 0.00 0.02 0.02 76 1034.3
20200225174949 41 172 0.0 0.0 0.00 0.02 0.02 85 1034.0
20200225173947 41 0 0.0 2.0 0.00 0.02 0.02 95 1034.6
20200225172947 40 58 0.0 0.0 0.02 0.02 0.02 98 1034.3
20200225171944 39 88 0.0 0.0 0.02 0.02 0.02 98 1034.6
20200225170947 39 80 0.0 0.0 0.02 0.02 0.02 99 1035.0
20200225165941 38 347 0.0 0.0 0.02 0.02 0.02 99 1035.3
20200225164938 38 301 0.0 0.0 0.02 0.02 0.02 99 1035.3
20200225163936 37 324 0.0 0.0 0.02 0.02 0.02 94 1035.0
20200225162936 37 134 0.0 0.0 0.00 0.00 0.00 94 1035.0
20200225161932 37 165 0.0 0.0 0.00 0.00 0.00 94 1035.3
20200225160934 36 228 0.0 2.0 0.00 0.00 0.00 94 1035.7
20200225155930 36 9 0.0 0.0 0.00 0.00 0.00 94 1036.0
20200225154927 36 181 0.0 0.0 0.00 0.00 0.00 94 1035.7
20200225153925 35 179 0.0 0.0 0.00 0.00 0.00 94 1035.3
20200225152924 35 178 0.0 0.0 0.00 0.00 0.00 94 1035.3
20200225151922 35 181 0.0 2.0 0.00 0.00 0.00 94 1035.3
20200225150921 35 234 0.0 0.0 0.00 0.00 0.00 94 1035.3
20200225145920 35 215 0.0 0.0 0.00 0.00 0.00 94 1035.7
20200225144917 35 173 0.0 0.0 0.00 0.00 0.00 94 1035.3
20200225143915 35 179 0.0 0.0 0.00 0.00 0.00 94 1035.7
20200225142914 35 176 0.0 0.0 0.00 0.00 0.00 93 1035.7
20200225141911 35 165 0.0 0.0 0.00 0.00 0.00 93 1035.7
20200225140911 35 149 0.0 0.0 0.00 0.00 0.00 93 1035.7
20200225135909 35 167 0.0 0.0 0.00 0.00 0.00 93 1035.7
20200225134905 35 178 0.0 0.0 0.00 0.00 0.00 93 1036.0
20200225133904 34 168 0.0 0.0 0.00 0.00 0.00 92 1035.7
20200225132904 34 181 0.0 0.0 0.00 0.00 0.00 92 1035.7
20200225131900 34 138 0.0 0.0 0.00 0.00 0.00 92 1035.7
20200225130858 32 182 0.0 0.0 0.00 0.00 0.00 92 1035.7
20200225125857 31 169 0.0 0.0 0.00 0.00 0.00 93 1035.3
20200225124854 31 180 0.0 0.0 0.00 0.00 0.00 92 1035.7
20200225123853 31 185 0.0 0.0 0.00 0.00 0.00 92 1035.7
20200225122851 31 175 0.0 0.0 0.00 0.00 0.00 92 1035.3
20200225121848 31 173 0.0 0.0 0.00 0.00 0.00 92 1035.7
20200225120847 31 181 0.0 0.0 0.00 0.00 0.00 92 1035.3
20200225115847 31 186 0.0 0.0 0.00 0.00 0.00 92 1035.3
20200225114846 32 189 0.0 0.0 0.00 0.00 0.00 92 1035.0
20200225113841 32 180 0.0 0.0 0.00 0.00 0.00 91 1035.0
20200225112841 32 181 0.0 0.0 0.00 0.00 0.00 91 1035.0
20200225111838 31 181 0.0 0.0 0.00 0.00 0.00 91 1035.3
20200225110837 32 184 0.0 0.0 0.00 0.00 0.00 90 1035.7
20200225105836 32 179 0.0 0.0 0.00 0.00 0.00 90 1035.7
20200225104833 32 181 0.0 0.0 0.00 0.00 0.00 90 1036.0
20200225103831 32 181 0.0 0.0 0.00 0.00 0.00 90 1036.0
20200225102829 33 178 0.0 0.0 0.00 0.00 0.00 90 1036.3
20200225101826 33 176 0.0 0.0 0.00 0.00 0.00 90 1036.3
20200225100827 33 176 0.0 0.0 0.00 0.00 0.00 89 1036.3
20200225095825 33 186 0.0 0.0 0.00 0.00 0.00 89 1036.3
20200225094826 33 184 0.0 0.0 0.00 0.00 0.00 89 1036.0
20200225093819 34 171 0.0 0.0 0.00 0.00 0.00 89 1036.0
20200225092820 33 175 0.0 0.0 0.00 0.00 0.00 88 1035.7
20200225091823 34 199 0.0 0.0 0.00 0.00 0.00 88 1035.7
20200225090815 34 196 0.0 0.0 0.00 0.00 0.00 88 1036.0
20200225085814 34 172 0.0 0.0 0.00 0.00 0.00 86 1036.0
20200225084811 34 185 0.0 0.0 0.00 0.00 0.00 86 1036.0
20200225083811 35 179 0.0 0.0 0.00 0.00 0.00 86 1035.7
20200225082809 35 180 0.0 0.0 0.00 0.00 0.00 85 1036.0
20200225081805 35 178 0.0 0.0 0.00 0.00 0.00 85 1036.0
20200225080803 35 175 0.0 0.0 0.00 0.00 0.00 85 1036.0
20200225075759 35 169 0.0 0.0 0.00 0.00 0.00 84 1036.0
20200225074758 35 178 0.0 0.0 0.00 0.00 0.00 84 1036.0
20200225073759 36 219 0.0 0.0 0.00 0.00 0.00 82 1036.0
20200225072756 36 184 0.0 0.0 0.00 0.00 0.00 81 1036.0
20200225071755 36 183 0.0 0.0 0.00 0.00 0.00 81 1036.0
20200225070758 37 167 0.0 0.0 0.00 0.00 0.00 80 1036.0
20200225065754 37 228 0.0 0.0 0.00 0.00 0.00 80 1036.0
20200225064753 38 205 0.0 0.0 0.00 0.00 0.00 83 1036.0
20200225063753 37 178 0.0 0.0 0.00 0.00 0.00 78 1036.3
20200225062751 38 163 0.0 0.0 0.00 0.00 0.00 80 1036.7
20200225061752 39 181 0.0 0.0 0.00 0.00 0.00 77 1036.3
20200225060751 40 236 0.0 0.0 0.00 0.00 0.00 76 1036.3
20200225055749 40 242 0.0 0.0 0.00 0.00 0.00 75 1036.3
20200225054748 41 200 0.0 2.0 0.00 0.00 0.00 73 1036.3
20200225053749 41 161 0.0 2.0 0.00 0.00 0.00 73 1036.3
20200225052747 42 317 0.0 0.0 0.00 0.00 0.00 73 1036.3
20200225051747 42 177 0.0 0.0 0.00 0.00 0.00 72 1036.0
20200225050748 42 187 0.0 0.0 0.00 0.00 0.00 71 1036.3
20200225045745 43 179 0.0 0.0 0.00 0.00 0.00 71 1036.7
20200225044745 42 180 0.0 0.0 0.00 0.00 0.00 72 1036.7
20200225043745 42 164 0.0 2.0 0.00 0.00 0.00 71 1036.3
20200225042743 43 315 0.0 8.0 0.00 0.00 0.00 75 1036.0
20200225041742 40 205 0.0 0.0 0.00 0.00 0.00 81 1036.3
20200225040743 39 190 0.0 0.0 0.00 0.00 0.00 78 1036.3
20200225035742 41 177 0.0 0.0 0.00 0.00 0.00 77 1036.3
20200225034741 40 183 0.0 0.0 0.00 0.00 0.00 75 1036.3
20200225033741 41 184 0.0 0.0 0.00 0.00 0.00 73 1036.3
20200225032739 42 184 0.0 0.0 0.00 0.00 0.00 72 1036.7
20200225031739 43 185 0.0 0.0 0.00 0.00 0.00 69 1036.7
20200225030739 43 186 0.0 0.0 0.00 0.00 0.00 67 1036.3
20200225025737 44 186 0.0 0.0 0.00 0.00 0.00 66 1036.7
20200225024738 44 186 0.0 0.0 0.00 0.00 0.00 64 1036.3
20200225023737 45 186 0.0 0.0 0.00 0.00 0.00 62 1036.7
20200225022735 45 188 0.0 0.0 0.00 0.00 0.00 60 1036.7
20200225021734 46 188 0.0 0.0 0.00 0.00 0.00 59 1036.7
20200225020735 46 179 0.0 0.0 0.00 0.00 0.00 58 1036.3
20200225015732 47 193 0.0 0.0 0.00 0.00 0.00 56 1036.3
20200225014732 47 201 0.0 2.0 0.00 0.00 0.00 55 1036.3
20200225013733 48 186 0.0 2.0 0.00 0.00 0.00 54 1036.3
20200225012731 48 215 0.0 2.0 0.00 0.00 0.00 53 1036.7
20200225011730 48 219 0.0 2.0 0.00 0.00 0.00 52 1036.3
20200225010731 48 184 0.0 2.0 0.00 0.00 0.00 52 1036.3
20200225005728 49 164 0.0 2.0 0.00 0.00 0.00 52 1036.3
20200225004728 49 181 2.0 5.0 0.00 0.00 0.00 51 1036.7
20200225003728 49 191 0.0 5.0 0.00 0.00 0.00 52 1036.7
20200225002727 49 180 2.0 13.0 0.00 0.00 0.00 52 1036.7
20200225001726 49 166 1.0 8.0 0.00 0.00 0.00 52 1036.3
20200225000726 49 240 5.0 8.0 0.00 0.00 0.00 51 1036.7
20200224235724 50 165 0.0 8.0 0.00 0.00 0.00 51 1036.7
20200224234724 49 186 0.0 10.0 0.00 0.00 0.00 53 1036.7
20200224233728 49 233 5.0 8.0 0.00 0.00 0.00 54 1036.7
20200224232722 49 174 0.0 2.0 0.00 0.00 0.00 53 1036.7
20200224231721 48 201 0.0 5.0 0.00 0.00 0.00 53 1037.0
20200224230722 48 185 0.0 5.0 0.00 0.00 0.00 55 1036.7
20200224225721 48 154 0.0 2.0 0.00 0.00 0.00 53 1036.7
20200224224720 49 173 0.0 2.0 0.00 0.00 0.00 52 1036.3